[[{"header":{"parameterUnit":"m.s-1","parameterCategory":1,"la1":30.2991,"la2":30.254,"lo1":-89.0895,"lo2":-89.0444,"dy":0.0017,"dx":0.0017,"nx":28,"ny":28,"refTime":"2025-05-01T09:00:00:Z","depth":0,"parameterNumber":2,"parameterNumberName":"U-component_of_WINDS"},"data":[0,0,0,0,0,0,0,0,0,0,0,0,0,0,0,0,0,0,0,0,0,0,0,0,0,0,0,0,0,0,0,0,0,0,0,0,0,0,0,0,0,0,0,0,0,0,0,0,0,0,0,0,0,0,0,0,0,0,-0.9715,-0.9717,0,-0.9951,-0.9953,-0.9956,-1.0098,-1.0098,-1.0099,-1.01,-1.0342,-1.0347,-1.0353,0,0,0,0,0,0,0,0,0,0,0,0,0,-0.9389,-0.9395,-0.9715,-0.9718,-0.9721,-0.995,-0.9953,-0.9957,-1.0098,-1.0098,-1.0099,-1.01,-1.034,-1.0347,-1.0354,0,0,0,0,0,0,0,0,0,0,0,0,0,-0.9568,-0.9396,-0.9714,-0.9819,-0.983,-0.9949,-0.9953,-0.9957,-1.0097,-1.0098,-1.0099,-1.01,-1.0337,-1.0346,-1.0355,-1.0388,0,0,-1.0381,-1.0385,0,0,0,0,0,0,0,0,-0.9558,-0.958,-0.98,-0.9812,-0.9825,-0.9996,-0.9928,-1.0102,-1.0097,-0.9996,-1.01,-1.0101,-1.0226,-1.0244,-1.0286,-1.04,-1.041,-1.0382,-1.0387,-1.0391,-1.0394,0,0,0,0,0,0,0,-0.9545,-0.9571,-0.9808,-0.9803,-0.9818,-0.9855,-0.9881,-0.9961,-1.0102,-1.0005,-1.0016,-1.0042,-1.0233,-1.0277,-1.0293,-1.0414,-1.0382,-1.039,-1.0395,-1.0398,-1.057,-1.0569,0,0,0,0,0,0,-0.9516,-0.956,-0.9801,-0.9815,-0.9691,-0.986,-0.9889,-0.994,-1.0102,-1.0128,-1.004,-1.0047,-1.0262,-1.0282,-1.0302,-1.0353,-1.0391,-1.0399,-1.0404,-1.0571,-1.057,-1.0569,0,0,0,0,0,0,-0.9509,-0.9536,-0.9791,-0.9691,-0.9726,-0.9864,-0.992,-0.9944,-0.9989,-1.0129,-1.0155,-1.006,-1.0263,-1.0289,-1.0366,-1.0364,-1.0403,-1.0411,-1.0571,-1.057,-1.0569,-1.0455,0,0,0,0,0,0,-0.9499,-0.9533,-0.9546,-0.969,-0.973,-0.9851,-0.992,-0.9948,-1.0003,-1.0014,-1.0154,-1.0178,-1.0266,-1.0352,-1.0375,-1.0376,-1.0418,-1.0572,-1.0571,-1.057,-1.046,-1.0451,-1.0442,0,0,0,0,0,-0.9487,-0.9505,-0.9546,-0.9574,-0.975,-0.985,-0.9874,-0.9974,-1.0002,-1.0018,-1.0108,-1.0173,-1.036,-1.0359,-1.0386,-1.0389,-1.0573,-1.0571,-1.057,-1.0464,-1.0452,-1.0443,0,0,0,0,0,0,-0.9357,-0.9525,-0.9573,-0.9638,-0.9729,-0.9874,-0.9896,-0.9959,-1.0044,-1.0051,-1.0173,-1.0203,-1.0268,-1.0337,-1.0333,-1.0432,-1.0474,-1.0478,-1.0384,-1.0375,-1.0366,-1.0348,-1.0425,0,0,0,0,0,-0.9336,-0.9402,-0.9546,-0.959,-0.9633,-0.9756,-0.9803,-0.9874,-0.9973,-1.0012,-1.0108,-1.0202,-1.0283,-1.0333,-1.0414,-1.0471,-1.0504,-1.0487,-1.0478,-1.047,-1.0472,-1.0509,-1.0503,-1.0564,-1.0564,-1.0564,0,0,-0.9293,-0.9393,-0.9428,-0.9566,-0.9645,-0.9712,-0.9787,-0.9855,-0.9906,-1.0022,-1.0101,-1.0175,-1.0288,-1.0355,-1.039,-1.0415,-1.0463,-1.0468,-1.0461,-1.0467,-1.0507,-1.0501,-1.0495,-1.0563,-1.0563,-1.0563,0,0,-0.9249,-0.9331,-0.9377,-0.9455,-0.9573,-0.9655,-0.9666,-0.9803,-0.9856,-0.9937,-1.0026,-1.0089,-1.0224,-1.0302,-1.0359,-1.0347,-1.041,-1.037,-1.0324,-1.0358,-1.0354,-1.035,-1.0346,-1.0343,-1.0371,-1.0371,-1.0371,0,-0.9181,-0.9285,-0.9393,-0.9456,-0.9514,-0.9623,-0.9671,-0.9741,-0.9879,-0.9918,-0.9944,-1.0117,-1.0201,-1.0289,-1.0286,-1.0328,-1.0345,-1.0354,-1.0345,-1.0343,-1.0341,-1.0339,-1.0337,-1.0365,-1.0366,-1.0367,-1.0367,0,-0.9196,-0.9267,-0.929,-0.9421,-0.9483,-0.9537,-0.9654,-0.9704,-0.9769,-0.9849,-0.9931,-1.0036,-1.0141,-1.0167,-1.0231,-1.0265,-1.0277,-1.0322,-1.0367,-1.0328,-1.0328,-1.0328,-1.0357,-1.0359,-1.0361,-1.0362,0,0,-0.9076,-0.9267,-0.9274,-0.9335,-0.9475,-0.9532,-0.9593,-0.9696,-0.9736,-0.9829,-0.9883,-0.9996,-1.004,-1.0105,-1.0179,-1.0209,-1.0194,-1.0252,-1.0256,-1.0237,-1.0238,-1.0202,-1.0199,-1.0237,-1.0237,-1.0237,-1.0229,0,-0.9053,-0.9166,-0.9266,-0.9343,-0.9411,-0.9516,-0.9569,-0.966,-0.9737,-0.9807,-0.9892,-0.997,-1.0022,-1.0062,-1.0096,-1.0188,-1.0195,-1.019,-1.0289,-1.0292,-1.0257,-1.02,-1.0162,-1.0148,-1.0229,-1.0229,-1.0229,0,-0.9041,-0.9129,-0.9212,-0.9347,-0.9379,-0.9424,-0.9528,-0.9593,-0.9699,-0.9753,-0.9826,-0.9904,-0.9974,-1.0012,-1.0111,-1.0105,-1.0152,-1.0204,-1.0206,-1.0218,-1.0257,-1.0211,-1.0146,-1.0144,-1.023,-1.023,-1.023,0,-0.8945,-0.9085,-0.9154,-0.9203,-0.9361,-0.9391,-0.9458,-0.9566,-0.9622,-0.9713,-0.9751,-0.9848,-0.9901,-0.9976,-1.0078,-1.0096,-1.0167,-1.0213,-1.0214,-1.0212,-1.0224,-1.0222,-1.0166,-1.0254,-1.0254,-1.0254,-1.0254,0,-0.8909,-0.8956,-0.9113,-0.9155,-0.9212,-0.9327,-0.938,-0.9456,-0.9552,-0.9612,-0.9709,-0.9763,-0.9895,-0.9966,-1.0047,-1.0117,-1.0141,-1.0187,-1.0208,-1.0178,-1.0172,-1.021,-1.0213,-1.0253,-1.0254,-1.0254,-1.0254,0,-0.8811,-0.8918,-0.9,-0.9143,-0.918,-0.9216,-0.9339,-0.9384,-0.9467,-0.9542,-0.9566,-0.9696,-0.9784,-0.9894,-1.0017,-1.0072,-1.0134,-1.0166,-1.0097,-1.011,-1.0105,-1.0104,-1.0071,-1.0073,-1.0158,-1.0158,-1.0157,0,-0.8781,-0.882,-0.8967,-0.9014,-0.9078,-0.9152,-0.921,-0.9325,-0.9382,-0.9507,-0.9538,-0.9634,-0.9716,-0.9852,-0.9958,-1.0054,-1.0089,-1.0071,-1.0104,-1.0073,-1.0089,-1.0085,-1.009,-1.0062,-1.006,-1.0059,-1.0058,0,-0.8716,-0.8767,-0.8846,-0.8945,-0.9011,-0.9094,-0.9181,-0.9214,-0.9348,-0.9407,-0.9498,-0.9562,-0.9689,-0.9783,-0.9892,-0.9963,-1.0033,-1.0047,-1.0053,-1.0023,-0.9981,-1.0004,-1.0074,-1.0047,-1.0048,-1.0049,-1.005,-1.005,-0.8652,-0.8691,-0.8801,-0.8887,-0.8965,-0.9045,-0.9095,-0.9184,-0.9262,-0.9374,-0.9438,-0.9527,-0.9635,-0.9789,-0.9857,-0.993,-0.9955,-0.9963,-0.9965,-0.9965,-0.9956,-0.997,-0.995,-0.995,-0.9951,-0.9951,-0.9952,0,-0.8592,-0.8668,-0.8746,-0.8865,-0.8933,-0.8993,-0.9094,-0.9146,-0.9224,-0.9318,-0.9398,-0.9503,-0.9595,-0.9709,-0.9809,-0.9845,-0.988,-0.9868,-0.9866,-0.9882,-0.9927,-0.9912,-0.9838,-0.9838,-0.9838,-0.9838,-0.9838,-0.9838,-0.8568,-0.8639,-0.8704,-0.8815,-0.8892,-0.898,-0.9032,-0.9107,-0.9183,-0.9296,-0.9373,-0.9447,-0.955,-0.9659,-0.9746,-0.9778,-0.981,-0.9788,-0.9828,-0.9868,-0.9878,-0.9888,-0.9875,-0.9794,-0.9794,-0.9778,-0.9777,-0.9777]},{"header":{"parameterUnit":"m.s-1","parameterCategory":1,"la1":30.2991,"la2":30.254,"lo1":-89.0895,"lo2":-89.0444,"dy":0.0017,"dx":0.0017,"nx":28,"ny":28,"refTime":"2025-05-01T09:00:00:Z","depth":0,"parameterNumber":3,"parameterNumberName":"V-component_of_WINDS"},"data":[0,0,0,0,0,0,0,0,0,0,0,0,0,0,0,0,0,0,0,0,0,0,0,0,0,0,0,0,0,0,0,0,0,0,0,0,0,0,0,0,0,0,0,0,0,0,0,0,0,0,0,0,0,0,0,0,0,0,6.92,6.92,0,6.9253,6.9253,6.9254,6.9198,6.9196,6.9194,6.9192,6.9238,6.9241,6.9245,0,0,0,0,0,0,0,0,0,0,0,0,0,6.9043,6.9046,6.92,6.92,6.9201,6.9253,6.9253,6.9254,6.9198,6.9196,6.9193,6.9191,6.9237,6.9241,6.9245,0,0,0,0,0,0,0,0,0,0,0,0,0,6.9105,6.9047,6.9199,6.918,6.9178,6.9253,6.9253,6.9254,6.9199,6.9196,6.9193,6.919,6.9236,6.9241,6.9245,6.9339,0,0,6.926,6.9262,0,0,0,0,0,0,0,0,6.9101,6.9111,6.9182,6.9181,6.918,6.9216,6.9215,6.9282,6.92,6.9191,6.9192,6.9188,6.9233,6.9238,6.9254,6.9341,6.9343,6.9261,6.9264,6.9266,6.9267,0,0,0,0,0,0,0,6.9097,6.9108,6.922,6.9183,6.9182,6.9166,6.9171,6.9228,6.9229,6.9191,6.9188,6.9195,6.9232,6.925,6.9255,6.9344,6.926,6.9265,6.9268,6.927,6.951,6.9513,0,0,0,0,0,0,6.9096,6.9105,6.9219,6.9222,6.9132,6.9171,6.9177,6.9207,6.9228,6.9228,6.9198,6.9192,6.9243,6.9249,6.9256,6.9366,6.9266,6.927,6.9273,6.9506,6.9511,6.9514,0,0,0,0,0,0,6.9093,6.9107,6.9216,6.9162,6.9175,6.9177,6.9212,6.921,6.9228,6.9233,6.9232,6.9217,6.9241,6.925,6.9319,6.9367,6.9272,6.9277,6.9502,6.9508,6.9513,6.9588,0,0,0,0,0,0,6.9089,6.9106,6.9143,6.9164,6.9178,6.9281,6.9215,6.9213,6.9238,6.9231,6.9251,6.9251,6.9239,6.9313,6.9324,6.9372,6.928,6.9498,6.9505,6.9511,6.9581,6.9595,6.9607,0,0,0,0,0,6.9083,6.916,6.9145,6.9159,6.9225,6.9284,6.9291,6.9279,6.9242,6.9278,6.9281,6.925,6.9361,6.932,6.9333,6.9383,6.9495,6.9503,6.951,6.9575,6.9592,6.9606,0,0,0,0,0,0,6.9141,6.9163,6.9146,6.9233,6.9257,6.9274,6.9319,6.9298,6.9331,6.9323,6.9304,6.9309,6.9382,6.939,6.9344,6.9475,6.9421,6.9432,6.9466,6.9482,6.9495,6.949,6.9284,0,0,0,0,0,6.9165,6.9214,6.9228,6.9303,6.9317,6.9316,6.9341,6.933,6.9353,6.9362,6.9371,6.9392,6.9432,6.9458,6.9495,6.9583,6.9585,6.9624,6.9637,6.9648,6.9656,6.9701,6.9718,6.954,6.954,6.954,0,0,6.9212,6.923,6.9261,6.9315,6.9333,6.9381,6.9325,6.9378,6.9412,6.9369,6.9436,6.9444,6.9466,6.9546,6.9581,6.9554,6.9706,6.9658,6.9666,6.9668,6.9711,6.9728,6.9743,6.9546,6.9545,6.9544,0,0,6.9323,6.9343,6.9407,6.9427,6.9456,6.9456,6.9471,6.9493,6.9496,6.9564,6.9533,6.9573,6.9642,6.966,6.9678,6.9799,6.977,6.9812,6.9877,6.9922,6.9936,6.9948,6.9989,7.0004,6.9821,6.9821,6.9821,0,6.9377,6.9451,6.9442,6.9498,6.9522,6.949,6.9553,6.9572,6.961,6.9626,6.9597,6.9684,6.9697,6.9779,6.981,6.9826,6.9841,6.9807,6.9936,6.9948,6.9959,6.9997,7.0013,6.9825,6.9825,6.9824,6.9824,0,6.9515,6.9567,6.9615,6.9656,6.9686,6.9745,6.9743,6.9774,6.9762,6.9764,6.9832,6.9848,6.9887,6.9907,6.9894,6.9987,6.997,6.9939,6.9884,6.9981,7.0016,7.0031,6.9832,6.983,6.9829,6.9828,0,0,6.9659,6.9698,6.9715,6.9734,6.9765,6.9803,6.9861,6.9903,6.9928,6.9957,7.0003,7.0064,7.0036,7.0057,7.0046,7.0086,7.0178,7.005,7.005,7.007,7.028,7.03,7.0318,7.0162,7.0165,7.0167,7.0277,0,6.9768,6.9871,6.9866,6.9961,7.0008,6.998,7.003,7.0053,7.0058,7.0096,7.01,7.0143,7.0104,7.0116,7.0155,7.0159,7.0219,7.0151,7.0201,7.0203,7.0192,7.0337,7.0358,7.0461,7.0291,7.0293,7.0295,0,6.9908,6.9945,7.0046,7.0072,7.0091,7.0136,7.0174,7.0213,7.0238,7.0238,7.0264,7.0247,7.0303,7.0251,7.0327,7.0281,7.0301,7.0306,7.031,7.0311,7.0252,7.0338,7.0494,7.0508,7.0317,7.0315,7.0314,0,6.9999,7.0075,7.0145,7.0162,7.0194,7.0226,7.024,7.0264,7.0289,7.0322,7.0338,7.0377,7.0396,7.0425,7.0418,7.0382,7.0495,7.0443,7.0494,7.0494,7.0515,7.0513,7.0673,7.0535,7.0535,7.0535,7.0534,0,7.012,7.0182,7.0186,7.0229,7.0297,7.0291,7.0358,7.0368,7.039,7.0432,7.041,7.045,7.044,7.0479,7.0474,7.0536,7.0546,7.0546,7.0543,7.0546,7.0546,7.0556,7.0547,7.0539,7.0538,7.0537,7.0536,0,7.0231,7.0237,7.0311,7.0338,7.0346,7.0394,7.0415,7.0454,7.0459,7.0513,7.0525,7.0531,7.0576,7.0574,7.0623,7.062,7.0696,7.0686,7.0688,7.0684,7.0734,7.0729,7.0903,7.0925,7.0776,7.0778,7.0779,0,7.0305,7.0353,7.0386,7.0414,7.0432,7.0478,7.0505,7.0501,7.053,7.0564,7.0599,7.0643,7.0677,7.0749,7.0756,7.0794,7.0783,7.0842,7.0788,7.0789,7.078,7.0776,7.078,7.0851,7.0853,7.0854,7.0855,0,7.0436,7.0437,7.0479,7.0523,7.0557,7.059,7.062,7.0644,7.0643,7.0677,7.0724,7.0751,7.0804,7.0846,7.0883,7.0895,7.0874,7.0873,7.0886,7.0887,7.0885,7.0884,7.0713,7.0868,7.0866,7.0865,7.0865,7.0864,7.0529,7.057,7.06,7.0647,7.0671,7.07,7.0739,7.075,7.0791,7.0835,7.083,7.0882,7.0907,7.0955,7.0971,7.101,7.0989,7.1009,7.1013,7.1017,7.1021,7.0883,7.1017,7.1017,7.1016,7.1016,7.1016,0,7.0655,7.0675,7.0719,7.0764,7.0801,7.0784,7.0817,7.0848,7.0895,7.0922,7.0958,7.1012,7.1054,7.1066,7.1106,7.1134,7.1126,7.1145,7.114,7.1143,7.104,7.1023,7.1151,7.1151,7.1151,7.1151,7.1151,7.1151,7.0725,7.0794,7.08,7.0879,7.0897,7.095,7.0971,7.0997,7.1019,7.1081,7.1117,7.1127,7.1147,7.1188,7.1225,7.1228,7.1242,7.1264,7.1262,7.1164,7.115,7.1137,7.1121,7.1268,7.1268,7.1362,7.1363,7.1363]}]]